Lid_Strength_Index
1 1 1 1 0 1 1 1 1 1 1 2 3 3 3 3 2 3 3 3 2 2 2 2 1 2 9 12 12 7 3 4 6 6 8 10 11 13 14 13 13 15 14 12 12 12 12
1 1 1 1 1 1 1 1 1 2 2 2 3 3 3 3 3 3 3 3 3 2 2 2 2 3 11 14 8 7 7 7 7 8 9 9 11 11 13 13 14 13 13 13 12 12 12
1 1 1 1 0 1 1 1 1 1 2 2 3 3 3 3 3 3 3 3 3 3 2 2 2 9 11 12 8 8 7 8 8 8 10 9 10 11 12 14 12 13 15 14 13 13 13
1 1 1 1 1 1 1 1 1 1 1 1 2 4 4 3 3 3 3 3 3 3 3 2 2 10 13 8 8 7 8 8 7 8 8 8 10 11 13 13 14 16 17 18 15 13 13
1 1 1 1 1 1 1 1 1 1 1 2 2 3 4 4 3 3 3 3 3 3 3 4 10 12 14 6 9 8 9 9 8 9 9 8 11 14 14 16 18 18 20 19 17 14 14
1 1 1 1 1 1 1 1 1 1 1 2 2 2 3 3 3 4 4 3 4 5 7 9 10 13 11 11 9 8 9 8 10 11 10 12 14 16 16 18 21 21 20 19 19 16 14
1 1 1 1 1 1 1 1 1 1 1 2 2 3 3 3 4 4 7 9 12 12 11 14 13 13 12 9 8 10 9 10 11 12 15 14 16 18 18 17 17 18 19 19 18 16 16
1 1 1 1 1 1 1 1 1 1 1 2 2 3 3 3 4 5 8 11 12 11 14 11 11 12 11 10 12 11 8 12 13 16 15 16 18 16 14 15 17 18 19 19 17 16 16
1 1 1 1 1 1 2 1 1 1 1 2 2 3 3 4 5 8 10 10 8 9 15 13 12 12 12 10 13 12 10 12 14 15 16 18 16 14 15 16 17 19 19 19 18 16 17
1 1 1 1 1 2 2 2 1 1 2 2 2 2 4 5 9 11 11 9 8 9 17 15 13 12 11 11 14 11 10 12 14 16 16 16 14 15 16 16 17 19 16 16 16 18 21
0 1 1 1 1 2 2 2 1 2 2 2 2 3 4 6 12 12 11 9 9 11 22 14 14 10 11 13 14 12 11 12 15 15 16 18 16 16 16 16 16 17 16 17 17 18 20
0 0 1 1 2 2 2 2 2 2 2 2 2 3 5 9 10 10 9 9 10 16 22 16 14 14 14 14 14 13 13 12 13 15 16 16 14 14 16 15 15 14 18 18 18 19 22
0 0 1 1 2 2 2 2 2 2 2 2 3 4 6 9 12 10 9 10 15 19 16 17 17 15 16 16 15 15 15 17 18 18 19 17 16 15 14 17 16 16 19 22 23 24 22
-0 0 1 1 1 2 2 2 2 2 2 2 3 6 7 7 9 8 10 13 19 17 18 15 16 16 17 16 17 16 17 18 17 18 21 20 19 16 14 16 18 18 19 23 25 26 23
0 0 1 1 1 2 2 2 2 2 2 3 5 9 10 9 8 9 12 17 19 18 16 17 16 18 18 17 18 17 19 18 17 17 20 21 19 16 15 15 16 18 19 18 20 23 26
0 1 0 1 1 2 2 2 2 2 3 3 8 10 9 9 8 11 14 17 18 16 15 16 19 18 19 18 17 18 20 18 17 16 17 19 21 17 16 15 15 17 16 20 20 25 24
0 1 0 0 1 2 2 2 2 2 3 4 8 9 8 9 10 12 16 17 15 14 15 17 18 19 19 19 19 20 20 18 17 17 16 18 19 18 17 18 18 17 18 18 19 19 23
0 1 0 0 1 2 2 2 2 2 4 7 9 11 8 9 12 16 16 15 12 14 14 15 16 17 18 18 19 20 19 18 16 16 19 17 19 21 18 17 17 17 18 17 21 21 21
0 1 -0 0 1 1 2 2 2 2 5 9 11 11 8 9 14 16 15 14 13 14 15 16 16 16 17 18 18 19 18 16 15 16 18 17 20 22 19 19 17 19 17 17 17 18 20
1 1 1 0 1 1 2 2 2 2 4 9 11 12 9 12 14 15 15 15 15 13 14 15 16 16 17 18 18 18 18 16 15 16 12 15 19 20 20 19 19 19 18 18 18 22 21
1 1 2 0 0 1 1 1 2 2 4 7 11 13 13 13 13 14 14 14 15 14 14 15 16 16 16 18 18 19 18 16 15 12 15 17 19 20 19 18 18 17 17 17 18 18 21
1 1 1 1 0 0 1 2 1 2 3 8 10 12 14 15 14 14 14 14 13 14 14 16 16 15 16 16 14 15 15 16 16 16 16 16 18 19 21 19 20 20 19 19 18 18 18
0 1 1 1 1 0 1 2 2 2 4 9 13 13 10 13 15 14 13 12 12 13 14 14 14 15 16 14 14 14 14 14 15 16 17 17 18 20 21 22 21 23 21 20 19 18 19
1 1 1 1 1 1 1 1 2 2 4 7 10 10 10 13 14 13 12 12 12 13 12 13 13 14 14 13 12 14 16 16 17 17 16 18 19 19 22 23 27 21 19 17 18 17 17
1 1 1 1 1 1 2 2 2 2 3 6 9 8 10 13 13 12 12 12 13 12 13 14 13 13 12 13 14 16 18 20 22 20 20 19 18 21 25 26 22 21 20 20 21 19 18
1 1 1 1 2 2 2 2 2 2 2 5 8 7 8 11 12 10 11 11 12 13 13 13 13 12 12 14 16 17 19 20 21 22 20 19 20 22 24 26 25 21 20 18 19 23 19
4 3 3 3 3 2 2 2 2 2 2 3 4 5 6 9 8 10 11 11 10 12 12 14 14 14 14 16 17 18 19 20 21 21 23 22 23 24 24 25 21 19 19 17 22 20 17
5 5 4 4 3 3 2 2 2 2 2 3 5 6 5 8 10 10 9 10 11 11 12 13 14 15 16 17 17 18 20 20 22 22 22 22 23 25 24 25 25 19 19 19 18 16 15
6 6 5 5 4 3 3 3 3 2 2 2 7 7 7 8 12 10 11 11 12 12 11 13 13 15 14 17 19 19 20 22 22 21 21 21 18 21 20 20 18 19 18 17 16 16 17